| time (UTC) | temp C | wind direction | speed KPH | gust KPH | rain 1hr cm | rain 24hr cm | rain mn cm | humidity % | barometer mb |
| 20260906164219 | 29 | 0.0 | 0.0 | 0.00 | 0.00 | 0.00 | 64 | 995.6 | |
| 20260906162719 | 30 | 0.0 | 0.0 | 0.00 | 0.00 | 0.00 | 64 | 995.5 | |
| 20260906161218 | 30 | 0.0 | 0.0 | 0.00 | 0.00 | 0.00 | 64 | 995.4 | |
| 20260906155718 | 30 | 0.0 | 0.0 | 0.00 | 0.00 | 0.00 | 63 | 995.3 | |
| 20260906154219 | 30 | 0.0 | 0.0 | 0.00 | 0.00 | 0.00 | 62 | 995.2 | |
| 20260906152718 | 30 | 0.0 | 0.0 | 0.00 | 0.00 | 0.00 | 62 | 995.0 | |
| 20260906151221 | 30 | 0.0 | 0.0 | 0.00 | 0.00 | 0.00 | 61 | 994.8 | |
| 20260906145718 | 30 | 0.0 | 0.0 | 0.00 | 0.00 | 0.00 | 60 | 994.7 | |
| 20260906144218 | 30 | 0.0 | 0.0 | 0.00 | 0.00 | 0.00 | 59 | 994.6 | |
| 20260906142718 | 30 | 0.0 | 0.0 | 0.00 | 0.00 | 0.00 | 59 | 994.5 | |
| 20260906141218 | 30 | 0.0 | 0.0 | 0.00 | 0.00 | 0.00 | 58 | 994.2 | |
| 20260906135718 | 31 | 0.0 | 0.0 | 0.00 | 0.00 | 0.00 | 58 | 994.0 | |
| 20260906134218 | 31 | 0.0 | 0.0 | 0.00 | 0.00 | 0.00 | 57 | 993.8 | |
| 20260906132718 | 31 | 0.0 | 0.0 | 0.00 | 0.00 | 0.00 | 58 | 993.6 | |
| 20260906131213 | 31 | 0.0 | 0.0 | 0.00 | 0.00 | 0.00 | 58 | 993.5 | |
| 20260906125718 | 31 | 0.0 | 0.0 | 0.00 | 0.00 | 0.00 | 58 | 993.3 | |
| 20260906124217 | 31 | 0.0 | 0.0 | 0.00 | 0.00 | 0.00 | 57 | 993.1 | |
| 20260906122717 | 31 | 0.0 | 0.0 | 0.00 | 0.00 | 0.00 | 56 | 993.0 | |
| 20260906121217 | 32 | 0.0 | 0.0 | 0.00 | 0.00 | 0.00 | 56 | 992.8 | |
| 20260906115717 | 31 | 0.0 | 0.0 | 0.00 | 0.00 | 0.00 | 56 | 992.6 | |
| 20260906114217 | 32 | 0.0 | 0.0 | 0.00 | 0.00 | 0.00 | 54 | 992.5 | |
| 20260906112716 | 32 | 0.0 | 0.0 | 0.00 | 0.00 | 0.00 | 54 | 992.5 | |
| 20260906111217 | 32 | 0.0 | 0.0 | 0.00 | 0.00 | 0.00 | 55 | 992.5 | |
| 20260906105716 | 32 | 0.0 | 0.0 | 0.00 | 0.00 | 0.00 | 53 | 992.5 | |
| 20260906104216 | 32 | 0.0 | 0.0 | 0.00 | 0.00 | 0.00 | 52 | 992.5 | |
| 20260906102716 | 33 | 0.0 | 0.0 | 0.00 | 0.00 | 0.00 | 49 | 992.5 | |
| 20260906101216 | 32 | 0.0 | 0.0 | 0.00 | 0.00 | 0.00 | 49 | 992.6 | |
| 20260906095716 | 33 | 0.0 | 0.0 | 0.00 | 0.00 | 0.00 | 48 | 992.9 | |
| 20260906094216 | 33 | 0.0 | 0.0 | 0.00 | 0.00 | 0.00 | 47 | 993.0 | |
| 20260906092716 | 33 | 0.0 | 0.0 | 0.00 | 0.00 | 0.00 | 48 | 993.2 | |
| 20260906091215 | 33 | 0.0 | 0.0 | 0.00 | 0.00 | 0.00 | 48 | 993.4 | |
| 20260906085716 | 33 | 0.0 | 0.0 | 0.00 | 0.00 | 0.00 | 50 | 993.5 | |
| 20260906084216 | 32 | 0.0 | 0.0 | 0.00 | 0.00 | 0.00 | 51 | 993.7 | |
| 20260906082716 | 32 | 0.0 | 0.0 | 0.00 | 0.00 | 0.00 | 50 | 993.9 | |
| 20260906081215 | 33 | 0.0 | 0.0 | 0.00 | 0.00 | 0.00 | 48 | 994.1 | |
| 20260906075715 | 33 | 0.0 | 0.0 | 0.00 | 0.00 | 0.00 | 49 | 994.2 | |
| 20260906074215 | 32 | 0.0 | 0.0 | 0.00 | 0.00 | 0.00 | 50 | 994.4 | |
| 20260906072715 | 32 | 0.0 | 0.0 | 0.00 | 0.00 | 0.00 | 53 | 994.6 | |
| 20260906071215 | 31 | 0.0 | 0.0 | 0.00 | 0.00 | 0.00 | 55 | 994.9 | |
| 20260906065715 | 31 | 0.0 | 0.0 | 0.00 | 0.00 | 0.00 | 55 | 995.2 | |
| 20260906064215 | 32 | 0.0 | 0.0 | 0.00 | 0.00 | 0.00 | 51 | 995.2 | |
| 20260906062715 | 32 | 0.0 | 0.0 | 0.00 | 0.00 | 0.00 | 53 | 995.3 | |
| 20260906061214 | 32 | 0.0 | 0.0 | 0.00 | 0.00 | 0.00 | 52 | 995.3 | |
| 20260906055714 | 31 | 0.0 | 0.0 | 0.00 | 0.00 | 0.00 | 55 | 995.5 | |
| 20260906054214 | 31 | 0.0 | 0.0 | 0.00 | 0.00 | 0.00 | 56 | 995.6 | |
| 20260906052714 | 31 | 0.0 | 0.0 | 0.00 | 0.00 | 0.00 | 56 | 995.6 | |
| 20260906051214 | 31 | 0.0 | 0.0 | 0.00 | 0.00 | 0.00 | 56 | 995.7 | |
| 20260906045713 | 31 | 0.0 | 0.0 | 0.00 | 0.00 | 0.00 | 56 | 995.7 | |
| 20260906044214 | 31 | 0.0 | 0.0 | 0.00 | 0.00 | 0.00 | 56 | 995.6 | |
| 20260906042713 | 30 | 0.0 | 0.0 | 0.00 | 0.00 | 0.00 | 57 | 995.6 | |
| 20260906041213 | 30 | 0.0 | 0.0 | 0.00 | 0.00 | 0.00 | 58 | 995.4 | |
| 20260906035713 | 30 | 0.0 | 0.0 | 0.00 | 0.00 | 0.00 | 61 | 995.4 | |
| 20260906034213 | 30 | 0.0 | 0.0 | 0.00 | 0.00 | 0.00 | 64 | 995.2 | |
| 20260906032713 | 29 | 0.0 | 0.0 | 0.00 | 0.00 | 0.00 | 65 | 995.1 | |
| 20260906031213 | 29 | 0.0 | 0.0 | 0.00 | 0.00 | 0.00 | 67 | 995.1 | |
| 20260906025712 | 28 | 0.0 | 0.0 | 0.00 | 0.00 | 0.00 | 68 | 994.8 | |
| 20260906024212 | 28 | 0.0 | 0.0 | 0.00 | 0.00 | 0.00 | 70 | 994.5 | |
| 20260906022713 | 28 | 0.0 | 0.0 | 0.00 | 0.00 | 0.00 | 71 | 994.4 | |
| 20260906021212 | 28 | 0.0 | 0.0 | 0.00 | 0.00 | 0.00 | 72 | 994.3 | |
| 20260906015712 | 28 | 0.0 | 0.0 | 0.00 | 0.00 | 0.00 | 72 | 994.1 | |
| 20260906014212 | 27 | 0.0 | 0.0 | 0.00 | 0.00 | 0.00 | 72 | 993.9 | |
| 20260906012725 | 27 | 0.0 | 0.0 | 0.00 | 0.00 | 0.00 | 72 | 989.3 | |
| 20260906012030 | 27 | 0.0 | 0.0 | 0.00 | 0.00 | 0.00 | 72 | 993.8 | |
| 20260906010531 | 27 | 0.0 | 0.0 | 0.00 | 0.00 | 0.00 | 72 | 993.8 | |
| 20260906005030 | 27 | 0.0 | 0.0 | 0.00 | 0.00 | 0.00 | 72 | 993.6 | |
| 20260906003530 | 27 | 0.0 | 0.0 | 0.00 | 0.00 | 0.00 | 72 | 993.6 | |
| 20260906002030 | 27 | 0.0 | 0.0 | 0.00 | 0.00 | 0.00 | 71 | 993.5 | |
| 20260906000530 | 27 | 0.0 | 0.0 | 0.00 | 0.00 | 0.00 | 71 | 993.3 | |
| 20260905235030 | 27 | 0.0 | 0.0 | 0.00 | 0.00 | 0.00 | 71 | 993.4 | |
| 20260905233529 | 27 | 0.0 | 0.0 | 0.00 | 0.00 | 0.00 | 71 | 993.4 | |
| 20260905232029 | 27 | 0.0 | 0.0 | 0.00 | 0.00 | 0.00 | 71 | 993.2 | |
| 20260905230529 | 27 | 0.0 | 0.0 | 0.00 | 0.00 | 0.00 | 71 | 993.1 | |
| 20260905225029 | 27 | 0.0 | 0.0 | 0.00 | 0.00 | 0.00 | 71 | 993.0 | |
| 20260905223529 | 27 | 0.0 | 0.0 | 0.00 | 0.00 | 0.00 | 70 | 993.1 | |
| 20260905222029 | 28 | 0.0 | 0.0 | 0.00 | 0.00 | 0.00 | 70 | 992.9 | |
| 20260905220529 | 28 | 0.0 | 0.0 | 0.00 | 0.00 | 0.00 | 70 | 992.8 | |
| 20260905215029 | 28 | 0.0 | 0.0 | 0.00 | 0.00 | 0.00 | 69 | 992.8 | |
| 20260905213529 | 28 | 0.0 | 0.0 | 0.00 | 0.00 | 0.00 | 69 | 992.8 | |
| 20260905212028 | 28 | 0.0 | 0.0 | 0.00 | 0.00 | 0.00 | 69 | 992.9 | |
| 20260905210528 | 28 | 0.0 | 0.0 | 0.00 | 0.00 | 0.00 | 68 | 993.0 | |
| 20260905205028 | 28 | 0.0 | 0.0 | 0.00 | 0.00 | 0.00 | 67 | 993.1 | |
| 20260905203540 | 28 | 0.0 | 0.0 | 0.00 | 0.00 | 0.00 | 67 | 988.7 | |
| 20260905203240 | 28 | 0.0 | 0.0 | 0.00 | 0.00 | 0.00 | 67 | 993.3 | |
| 20260905201739 | 28 | 0.0 | 0.0 | 0.00 | 0.00 | 0.00 | 67 | 993.4 | |
| 20260905200240 | 28 | 0.0 | 0.0 | 0.00 | 0.00 | 0.00 | 67 | 993.5 | |
| 20260905194739 | 28 | 0.0 | 0.0 | 0.00 | 0.00 | 0.00 | 67 | 993.6 | |
| 20260905193239 | 28 | 0.0 | 0.0 | 0.00 | 0.00 | 0.00 | 65 | 993.7 | |
| 20260905191739 | 28 | 0.0 | 0.0 | 0.00 | 0.00 | 0.00 | 64 | 993.9 | |
| 20260905190239 | 28 | 0.0 | 0.0 | 0.00 | 0.00 | 0.00 | 64 | 993.9 | |
| 20260905184738 | 28 | 0.0 | 0.0 | 0.00 | 0.00 | 0.00 | 64 | 994.1 | |
| 20260905183239 | 28 | 0.0 | 0.0 | 0.00 | 0.00 | 0.00 | 65 | 994.3 | |
| 20260905181739 | 28 | 0.0 | 0.0 | 0.00 | 0.00 | 0.00 | 65 | 994.4 | |
| 20260905180238 | 29 | 0.0 | 0.0 | 0.00 | 0.00 | 0.00 | 65 | 994.4 | |
| 20260905174738 | 29 | 0.0 | 0.0 | 0.00 | 0.00 | 0.00 | 65 | 994.6 | |
| 20260905173238 | 29 | 0.0 | 0.0 | 0.00 | 0.00 | 0.00 | 64 | 994.6 | |
| 20260905171738 | 29 | 0.0 | 0.0 | 0.00 | 0.00 | 0.00 | 64 | 994.6 | |
| 20260905170238 | 29 | 0.0 | 0.0 | 0.00 | 0.00 | 0.00 | 64 | 994.5 | |
| 20260905164737 | 29 | 0.0 | 0.0 | 0.00 | 0.00 | 0.00 | 63 | 994.5 |